Simultaneous Nadir Overpasses (SNOs) Predictions

Prediction of SNOs between METOP-B and NOAA-19 Satellite Orbit:

Table of predicted SNOs for the next 14.0 days since TLE Epoch: 10/15/2022
Index Date (METOP-B) Time (METOP-B) Lat,Lon (METOP-B) SZA (METOP-B ) Date (NOAA-19) Time (NOAA-19) Lat,Lon (NOAA-19) SZA (NOAA-19 ) Distance(km) Time Diff (sec)
1 10/16/2022 18:30:16 80.89, -63.04 91.85 10/16/2022 18:29:20 80.90, -63.09 91.82 1.14 56
2 10/16/2022 19:20:57 -80.90, 104.37 88.13 10/16/2022 19:20:15 -80.90, 104.19 88.17 3.25 42
3 10/16/2022 20:11:37 80.90, -88.16 91.90 10/16/2022 20:11:19 80.90, -88.33 91.87 3.16 18
4 10/16/2022 21:02:19 -80.89, 78.90 88.13 10/16/2022 21:02:14 -80.89, 78.95 88.12 1.12 5
5 10/16/2022 21:52:59 80.90,-113.63 91.91 10/16/2022 21:53:18 80.89,-113.57 91.92 1.24 19
6 10/16/2022 22:43:40 -80.90, 53.78 88.07 10/16/2022 22:44:13 -80.89, 53.71 88.07 1.51 33
7 10/16/2022 23:34:21 80.89,-139.11 91.92 10/16/2022 23:35:18 80.89,-139.17 91.94 1.27 57
8 10/17/2022 00:25:02 -80.89, 28.31 88.06 10/17/2022 00:26:12 -80.89, 28.47 88.02 2.91 70
9 10/28/2022 01:38:30 -80.90, 10.13 84.13 10/28/2022 01:37:20 -80.90, 10.05 84.17 1.36 70
10 10/28/2022 02:29:11 80.89, 177.14 95.85 10/28/2022 02:28:25 80.90, 177.31 95.85 3.35 46
11 10/28/2022 03:19:52 -80.89, -15.35 84.12 10/28/2022 03:19:19 -80.90, -15.19 84.12 2.82 33
12 10/28/2022 04:10:32 80.90, 152.02 95.90 10/28/2022 04:10:24 80.90, 152.06 95.90 0.86 8
13 10/28/2022 05:01:14 -80.89, -40.84 84.12 10/28/2022 05:01:19 -80.90, -40.81 84.11 1.22 5
14 10/28/2022 05:51:54 80.89, 126.53 95.90 10/28/2022 05:52:24 80.90, 126.45 95.91 1.82 30
15 10/28/2022 06:42:35 -80.90, -65.96 84.07 10/28/2022 06:43:18 -80.90, -66.06 84.06 1.79 43



Historial Predications of SNOs between METOP-B and NOAA-19
